Location: Newark
(35.8833°N, 14.5000°E)
Time: 10:40:04
(UTC+00:00)

Altair - Pass Details

Date: 29 November 2019
Orbit: 1502 x 1682 km, 47.2° (Epoch: 12 December)

Event Time Altitude Azimuth Distance (km) Brightness Sun altitude
Rises 04:01:05 0° 300° (WNW) 4,637 - -22.0°
Reaches altitude 10° 04:04:12 10° 305° (NW) 3,653 - -21.4°
Exits shadow 04:07:23 24° 314° (NW) 2,713 8.3 -20.7°
Maximum altitude 04:13:12 57° 23° (NNE) 1,742 7.8 -19.6°
Drops below altitude 10° 04:22:20 10° 101° (E) 3,711 10.8 -17.8°
Sets 04:25:31 0° 105° (ESE) 4,715 11.9 -17.1°
